Location: Krakow
(50.0212°N, 19.9423°E)
Time: 22:35:44
(UTC+02:00)

NOAA 18 - Pass Details

Date: 19 August 2024
Orbit: 837 x 859 km, 98.9° (Epoch: 19 September)

Event Time Altitude Azimuth Distance (km) Brightness Sun altitude
Exits shadow 21:02:28 11° 99° (E) 2,412 7.0 -11.1°
Maximum altitude 21:06:08 21° 55° (NE) 1,855 6.8 -11.6°
Drops below altitude 10° 21:10:08 10° 9° (N) 2,507 8.0 -12.1°
Sets 21:13:03 0° 354° (N) 3,447 9.1 -12.5°
